• In Deutschland
  • Länderverzeichnis
  • Für 7 Tage
  • Wassertemperatur
  • Satellitenkarten
  • Wetterkarte
  • Widgets
  • user-avatar
    Anmelden

    Stündliche Wetter Springe

    Heute, 25 Februar, Sonntag

    Zeit Temperatur Niederschläge Wind Luftdruck Luftfeuchtigkeit
    00:00 -7°C° 0 mm 5 m/S 761 mmHg 47%
    01:00 -8°C° 0 mm 4 m/S 761 mmHg 49%
    02:00 -8°C° 0 mm 4 m/S 761 mmHg 49%
    03:00 -8°C° 0 mm 4 m/S 761 mmHg 50%
    04:00 -8°C° 0 mm 4 m/S 761 mmHg 50%
    05:00 -9°C° 0 mm 4 m/S 761 mmHg 50%
    06:00 -9°C° 0 mm 4 m/S 761 mmHg 51%
    07:00 -9°C° 0 mm 3 m/S 762 mmHg 51%
    08:00 -9°C° 0 mm 4 m/S 762 mmHg 47%
    09:00 -8°C° 0 mm 4 m/S 762 mmHg 43%
    10:00 -8°C° 0 mm 4 m/S 762 mmHg 39%
    11:00 -7°C° 0 mm 4 m/S 761 mmHg 39%
    12:00 -5°C° 0 mm 4 m/S 761 mmHg 38%
    13:00 -5°C° 0 mm 5 m/S 761 mmHg 38%
    14:00 -4°C° 0 mm 4 m/S 761 mmHg 40%
    15:00 -4°C° 0 mm 4 m/S 760 mmHg 42%
    16:00 -4°C° 0 mm 4 m/S 760 mmHg 43%
    17:00 -4°C° 0 mm 4 m/S 760 mmHg 49%
    18:00 -5°C° 0 mm 3 m/S 760 mmHg 55%
    19:00 -5°C° 0 mm 3 m/S 760 mmHg 61%
    20:00 -6°C° 0 mm 3 m/S 760 mmHg 64%
    21:00 -6°C° 0 mm 3 m/S 760 mmHg 67%
    22:00 -7°C° 0 mm 4 m/S 760 mmHg 71%
    23:00 -7°C° 0 mm 4 m/S 760 mmHg 72%

    Morgen, 26 Februar, Montag

    Zeit Temperatur Niederschläge Wind Luftdruck Luftfeuchtigkeit
    00:00 -7°C° 0 mm 4 m/S 760 mmHg 74%
    01:00 -7°C° 0 mm 3 m/S 761 mmHg 75%
    02:00 -7°C° 0 mm 3 m/S 760 mmHg 76%
    03:00 -7°C° 0 mm 3 m/S 760 mmHg 77%
    04:00 -7°C° 0 mm 3 m/S 760 mmHg 78%
    05:00 -8°C° 0 mm 3 m/S 760 mmHg 78%
    06:00 -8°C° 0 mm 3 m/S 761 mmHg 78%
    07:00 -9°C° 0 mm 4 m/S 761 mmHg 78%
    08:00 -8°C° 0 mm 4 m/S 761 mmHg 71%
    09:00 -8°C° 0 mm 5 m/S 761 mmHg 65%
    10:00 -8°C° 0 mm 6 m/S 761 mmHg 59%
    11:00 -8°C° 0 mm 6 m/S 760 mmHg 53%
    12:00 -6°C° 0 mm 6 m/S 760 mmHg 47%
    13:00 -5°C° 0 mm 6 m/S 760 mmHg 42%
    14:00 -5°C° 0 mm 6 m/S 759 mmHg 43%
    15:00 -5°C° 0 mm 5 m/S 759 mmHg 43%
    16:00 -5°C° 0 mm 5 m/S 758 mmHg 44%
    17:00 -6°C° 0,1 mm 5 m/S 758 mmHg 53%
    18:00 -5°C° 0,1 mm 4 m/S 758 mmHg 61%
    19:00 -7°C° 0,1 mm 4 m/S 758 mmHg 69%
    20:00 -7°C° 0,1 mm 4 m/S 758 mmHg 70%
    21:00 -7°C° 0,1 mm 4 m/S 758 mmHg 71%
    22:00 -7°C° 0,1 mm 4 m/S 757 mmHg 72%
    23:00 -8°C° 0 mm 4 m/S 757 mmHg 74%

    übermorgen, 27 Februar, Dienstag

    Zeit Temperatur Niederschläge Wind Luftdruck Luftfeuchtigkeit
    00:00 -8°C° 0 mm 4 m/S 757 mmHg 76%
    01:00 -7°C° 0 mm 3 m/S 757 mmHg 78%
    02:00 -7°C° 0 mm 3 m/S 756 mmHg 80%
    03:00 -8°C° 0 mm 3 m/S 756 mmHg 81%
    04:00 -7°C° 0 mm 2 m/S 756 mmHg 83%
    05:00 -7°C° 0,1 mm 2 m/S 756 mmHg 82%
    06:00 -7°C° 0,1 mm 2 m/S 756 mmHg 82%
    07:00 -7°C° 0,1 mm 2 m/S 755 mmHg 81%
    08:00 -6°C° 0 mm 2 m/S 755 mmHg 73%
    09:00 -7°C° 0 mm 3 m/S 755 mmHg 65%
    10:00 -6°C° 0 mm 3 m/S 755 mmHg 57%
    11:00 -6°C° 0 mm 3 m/S 755 mmHg 54%
    12:00 -5°C° 0 mm 3 m/S 755 mmHg 50%
    13:00 -5°C° 0 mm 3 m/S 754 mmHg 46%
    14:00 -5°C° 0,1 mm 3 m/S 754 mmHg 46%
    15:00 -5°C° 0,1 mm 3 m/S 753 mmHg 47%
    16:00 -5°C° 0,1 mm 3 m/S 753 mmHg 47%
    17:00 -5°C° 0,1 mm 3 m/S 753 mmHg 52%
    18:00 -6°C° 0,1 mm 3 m/S 754 mmHg 56%
    19:00 -6°C° 0,1 mm 2 m/S 754 mmHg 60%
    20:00 -7°C° 0 mm 3 m/S 754 mmHg 56%
    21:00 -7°C° 0 mm 3 m/S 754 mmHg 52%
    22:00 -9°C° 0 mm 4 m/S 755 mmHg 49%
    23:00 -9°C° 0 mm 4 m/S 755 mmHg 48%

    28 Februar, Mittwoch

    Zeit Temperatur Niederschläge Wind Luftdruck Luftfeuchtigkeit
    00:00 -10°C° 0 mm 4 m/S 756 mmHg 48%
    01:00 -10°C° 0 mm 4 m/S 756 mmHg 48%
    02:00 -11°C° 0 mm 4 m/S 756 mmHg 50%
    03:00 -11°C° 0 mm 4 m/S 756 mmHg 51%
    04:00 -11°C° 0 mm 4 m/S 756 mmHg 53%
    05:00 -12°C° 0 mm 4 m/S 757 mmHg 55%
    06:00 -13°C° 0 mm 5 m/S 757 mmHg 57%
    07:00 -13°C° 0 mm 5 m/S 757 mmHg 59%
    08:00 -13°C° 0 mm 5 m/S 757 mmHg 57%
    09:00 -12°C° 0 mm 5 m/S 757 mmHg 55%
    10:00 -12°C° 0 mm 6 m/S 758 mmHg 53%
    11:00 -11°C° 0 mm 6 m/S 758 mmHg 50%
    12:00 -10°C° 0 mm 6 m/S 757 mmHg 47%
    13:00 -9°C° 0 mm 6 m/S 757 mmHg 45%
    14:00 -9°C° 0 mm 6 m/S 757 mmHg 44%
    15:00 -9°C° 0 mm 6 m/S 757 mmHg 43%
    16:00 -9°C° 0 mm 7 m/S 756 mmHg 42%
    17:00 -9°C° 0 mm 6 m/S 756 mmHg 45%
    18:00 -10°C° 0 mm 6 m/S 756 mmHg 48%
    19:00 -11°C° 0 mm 6 m/S 756 mmHg 51%
    20:00 -11°C° 0 mm 6 m/S 756 mmHg 52%
    21:00 -11°C° 0 mm 6 m/S 757 mmHg 53%
    22:00 -11°C° 0 mm 6 m/S 757 mmHg 55%
    23:00 -11°C° 0 mm 6 m/S 756 mmHg 55%

    1 März, Donnerstag

    Zeit Temperatur Niederschläge Wind Luftdruck Luftfeuchtigkeit
    00:00 -12°C° 0 mm 6 m/S 756 mmHg 56%
    01:00 -12°C° 0 mm 6 m/S 756 mmHg 57%
    02:00 -12°C° 0 mm 6 m/S 755 mmHg 58%
    03:00 -12°C° 0 mm 6 m/S 755 mmHg 59%
    04:00 -14°C° 0 mm 6 m/S 755 mmHg 60%
    05:00 -14°C° 0 mm 6 m/S 754 mmHg 61%
    06:00 -14°C° 0 mm 6 m/S 754 mmHg 62%
    07:00 -14°C° 0 mm 6 m/S 753 mmHg 62%
    08:00 -14°C° 0 mm 7 m/S 753 mmHg 59%
    09:00 -13°C° 0 mm 7 m/S 753 mmHg 56%
    10:00 -12°C° 0 mm 7 m/S 753 mmHg 53%
    11:00 -11°C° 0 mm 7 m/S 752 mmHg 50%
    12:00 -11°C° 0 mm 7 m/S 751 mmHg 47%
    13:00 -10°C° 0 mm 8 m/S 751 mmHg 43%
    14:00 -9°C° 0 mm 7 m/S 750 mmHg 43%
    15:00 -8°C° 0 mm 7 m/S 750 mmHg 42%
    16:00 -8°C° 0 mm 7 m/S 749 mmHg 42%
    17:00 -9°C° 0 mm 7 m/S 749 mmHg 43%
    18:00 -11°C° 0 mm 7 m/S 749 mmHg 45%
    19:00 -11°C° 0 mm 7 m/S 749 mmHg 47%
    20:00 -11°C° 0 mm 7 m/S 749 mmHg 47%
    21:00 -12°C° 0 mm 7 m/S 749 mmHg 47%
    22:00 -12°C° 0 mm 7 m/S 749 mmHg 48%
    23:00 -12°C° 0 mm 7 m/S 748 mmHg 48%

    2 März, Freitag

    Zeit Temperatur Niederschläge Wind Luftdruck Luftfeuchtigkeit
    00:00 -12°C° 0 mm 7 m/S 748 mmHg 49%
    01:00 -13°C° 0 mm 7 m/S 747 mmHg 50%
    02:00 -13°C° 0 mm 7 m/S 747 mmHg 52%
    03:00 -13°C° 0 mm 7 m/S 746 mmHg 53%
    04:00 -13°C° 0 mm 7 m/S 746 mmHg 55%
    05:00 -13°C° 0 mm 7 m/S 746 mmHg 57%
    06:00 -13°C° 0 mm 7 m/S 745 mmHg 58%
    07:00 -13°C° 0 mm 7 m/S 745 mmHg 60%
    08:00 -13°C° 0 mm 7 m/S 744 mmHg 58%
    09:00 -12°C° 0 mm 7 m/S 744 mmHg 56%
    10:00 -11°C° 0 mm 7 m/S 744 mmHg 54%
    11:00 -8°C° 0 mm 7 m/S 743 mmHg 51%
    12:00 -7°C° 0 mm 7 m/S 743 mmHg 48%
    13:00 -6°C° 0 mm 7 m/S 742 mmHg 45%
    14:00 -6°C° 0 mm 7 m/S 741 mmHg 45%
    15:00 -4°C° 0 mm 6 m/S 741 mmHg 45%
    16:00 -4°C° 0 mm 6 m/S 741 mmHg 44%
    17:00 -4°C° 0 mm 6 m/S 740 mmHg 47%
    18:00 -5°C° 0 mm 6 m/S 740 mmHg 50%
    19:00 -5°C° 0 mm 5 m/S 740 mmHg 53%
    20:00 -5°C° 0,3 mm 5 m/S 740 mmHg 61%
    21:00 -5°C° 0,3 mm 5 m/S 740 mmHg 70%
    22:00 -5°C° 0,3 mm 5 m/S 739 mmHg 78%
    23:00 -4°C° 0,1 mm 4 m/S 739 mmHg 80%
    Mehr zeigen